Skip Page Navigation
NASA JPL Caltech
NASA Logo - Jet Propulsion Laboratory + View the NASA Portal
+ Center for Near-Earth Object Studies
JPL Home Earth Solar System Stars & Galaxies Technology
JPL Solar System Dynamics
BODIES ORBITS EPHEMERIDES TOOLS PHYSICAL DATA DISCOVERY FAQ SITE MAP
IMPORTANT: The SSD Announcement email list is now available. Major changes are coming in the near future, including possible hostname and/or URL changes. To be notified of such changes, subscribe to this email list.

Please visit this page for more details.


JPL Small-Body Database Browser
Search: [ help ]  
193167 (2000 KK41)
Classification: Main-belt Asteroid          SPK-ID: 2193167
Ephemeris | Orbit Diagram | Orbital Elements | Mission Design | Physical Parameters | Discovery Circumstances ]

[ show orbit diagram ]
Orbital Elements at Epoch 2459000.5 (2020-May-31.0) TDB
Reference: JPL 19 (heliocentric ecliptic J2000)
 Element Value Uncertainty (1-sigma)   Units 
e .1820329035935818 4.092e-08  
a 2.388376221043631 1.1604e-08 au
q 1.953613162653193 9.5057e-08 au
i 2.106613155159322 4.5555e-06 deg
node 126.2470925659034 0.00012544 deg
peri 161.0742612029618 0.00012641 deg
M 124.631103468052 1.4934e-05 deg
tp 2458533.758439065844
(2019-Feb-19.25843907)
5.4686e-05 TDB
period 1348.194449544999
3.69
9.8256e-06
2.69e-08
d
yr
n .2670237962494921 1.9461e-09 deg/d
Q 2.82313927943407 1.3717e-08 au
  Orbit Determination Parameters
   # obs. used (total)      406  
   data-arc span      21669 days (59.33 yr)  
   first obs. used      1960-09-29  
   last obs. used      2020-01-27  
   planetary ephem.      DE431  
   SB-pert. ephem.      SB431-N16  
   condition code      0  
   norm. resid. RMS      .55188  
   source      ORB  
   producer      Otto Matic  
   solution date      2020-Feb-24 22:00:32  

Additional Information
 Earth MOID = .937381 au 
 Jupiter MOID = 2.33979 au 
 T_jup = 3.510 
[ show covariance matrix ]

Ephemeris | Orbit Diagram | Orbital Elements | Mission Design | Physical Parameters | Discovery Circumstances ]

Physical Parameter Table
Parameter Symbol Value Units Sigma Reference Notes
absolute magnitude H 16.6   n/a MPO436953  

193167 (2000 KK41)          Discovered 2000-May-31 by Comba, P. G. at Prescott
Reference: 20081113/Numbers.arcLast Updated: 2008-11-17

Alternate Designations
 2000 KK41 = 2001 WR83 
Ephemeris | Orbit Diagram | Orbital Elements | Mission Design | Physical Parameters | Discovery Circumstances ]
ABOUT SSD CREDITS/AWARDS PRIVACY/COPYRIGHT GLOSSARY LINKS
FirstGov 2020-Jun-06 15:31 UT
(server date/time)  
NASA Home Page
Site Manager:   Ryan S. Park
Webmaster  Alan B. Chamberlin